Dewpoint
42 39 36 34 35 33 32 33 33 32 32 32 32 31 32 31 32 31 31 30 32 32 31 30 30 31 28 27 25 24 21 20 18 19 21 21 20 21 20 23 23 22 24
34 34 35 37 36 34 33 33 34 32 32 31 30 31 32 33 33 31 31 31 31 31 31 31 30 28 25 24 22 19 18 18 19 17 18 18 19 19 20 20 20 20 23
34 37 36 37 36 33 33 33 33 32 32 31 30 31 32 34 33 32 31 32 31 31 32 30 29 27 21 22 19 18 18 18 19 18 17 18 18 19 19 20 22 22 24
34 35 36 36 34 35 33 33 32 32 30 30 31 32 34 34 31 31 30 29 28 27 27 26 24 22 19 18 17 16 17 18 19 18 18 18 18 18 20 20 22 23 22
36 36 37 36 36 36 34 32 32 32 31 31 31 33 34 33 32 31 29 28 26 25 25 23 22 23 26 21 17 19 19 19 19 18 17 18 17 18 19 21 23 20 18
36 35 36 38 35 35 34 33 32 33 33 32 32 33 33 31 33 34 30 25 24 23 23 23 20 22 25 26 24 22 20 18 18 18 18 16 17 16 19 18 19 17 17
34 34 37 35 34 35 33 32 33 34 34 33 33 33 32 32 34 34 31 23 22 22 24 21 20 22 22 19 20 19 18 19 18 20 17 16 16 15 17 19 20 20 20
34 34 34 35 34 34 34 34 35 34 31 31 30 31 32 31 34 32 28 22 22 24 23 22 21 20 20 19 18 18 18 18 18 17 18 17 17 20 21 22 23 25 23
33 35 34 35 33 34 34 35 34 33 32 30 30 31 31 30 33 31 25 21 24 24 24 23 22 21 22 23 19 19 18 18 18 20 21 22 23 22 23 25 22 21 19
34 33 34 34 34 35 36 36 35 31 30 31 30 29 31 30 32 30 25 25 24 25 24 23 24 20 24 22 21 20 18 17 17 18 19 19 21 20 22 22 22 21 21
36 36 37 37 38 38 36 33 31 30 30 30 30 30 29 28 29 30 29 24 24 24 24 23 23 24 23 23 24 22 20 20 21 21 19 18 19 19 20 21 23 23 22
36 38 39 38 37 33 30 30 29 29 29 29 29 29 27 27 29 30 30 27 25 23 24 23 23 25 25 26 24 25 26 25 20 17 16 18 18 17 18 20 22 23 24
37 38 38 34 33 32 30 30 29 29 27 27 27 25 26 28 27 30 31 29 28 23 23 23 24 25 26 25 26 26 23 21 17 9 16 16 16 17 20 21 21 21 22
32 32 32 32 32 32 31 31 29 27 26 28 27 26 26 27 28 27 27 29 28 25 22 23 22 24 20 21 21 23 22 21 20 17 14 14 16 17 17 19 19 20 21
30 31 31 29 30 30 30 30 29 29 28 27 27 26 24 24 28 31 29 26 26 25 19 15 16 18 20 21 20 20 20 19 16 13 14 14 14 16 17 18 19 19 15
30 30 28 28 27 29 29 30 31 31 31 31 31 28 27 30 31 31 32 31 29 26 22 16 18 17 18 19 17 17 17 16 17 15 13 13 12 11 15 17 18 16 16
29 29 28 28 28 27 28 28 27 29 31 32 32 32 32 32 31 31 32 31 30 29 25 25 22 18 18 18 18 18 17 17 16 16 14 11 8 12 11 14 14 15 16
29 29 28 29 29 29 28 28 29 29 29 31 29 30 30 31 32 32 31 31 29 30 26 23 20 19 17 18 19 19 19 15 14 14 11 6 0 7 8 10 12 6 12
30 29 29 29 30 31 31 31 31 31 31 32 31 27 28 31 32 32 32 30 28 25 25 23 22 21 20 21 21 20 20 17 14 13 11 8 1 8 6 8 7 8 7
27 26 25 25 24 24 25 26 27 30 32 32 31 29 29 25 27 26 29 31 30 28 26 25 25 24 23 23 22 22 21 18 17 15 11 7 5 4 4 4 1 4 12
20 21 21 22 23 23 23 23 24 24 24 25 27 31 28 28 30 28 30 30 30 29 28 27 27 27 27 26 25 24 23 21 21 20 19 14 4 4 8 4 3 9 13
20 21 22 20 19 20 20 20 21 23 24 24 25 27 30 30 30 31 31 31 31 30 30 28 28 28 28 27 26 24 22 21 21 22 20 18 13 10 8 4 3 4 8
17 15 15 15 15 16 16 16 18 18 18 20 24 27 27 29 29 30 30 30 32 32 31 30 31 30 30 30 29 29 27 24 23 23 22 19 16 11 7 4 4 3 2
15 9 9 11 11 11 11 12 14 13 13 14 15 18 20 26 31 29 29 31 31 30 30 31 32 31 30 30 30 30 29 29 27 26 26 23 19 14 9 4 5 2 1
10 5 5 7 7 7 8 9 9 9 11 11 13 13 15 16 19 18 19 19 20 21 19 20 21 21 22 27 30 30 31 31 30 27 26 25 22 18 14 10 3 4 2
7 9 2 4 5 5 5 6 5 6 7 8 10 11 12 13 13 14 14 15 15 15 15 16 17 16 18 19 20 22 25 28 31 29 27 25 22 19 15 12 8 6 6
Lifted_Index
-1 -0 1 2 3 4 5 7 8 10 11 12 13 13 13 13 12 12 11 11 11 11 11 11 11 11 11 11 11 11 11 11 11 10 10 10 11 12 12 13 13 12 12
-1 0 1 2 3 4 6 7 9 9 11 12 12 13 13 12 12 11 11 11 11 11 11 11 11 11 11 11 11 11 11 10 10 10 10 10 11 12 12 13 12 12 12
1 1 2 2 4 5 6 8 9 10 10 11 12 12 13 12 12 11 11 11 11 11 10 10 11 11 11 11 11 10 10 10 10 10 10 11 11 12 12 12 12 12 12
1 2 2 3 5 6 7 8 9 10 11 11 12 12 12 12 11 11 10 10 10 10 10 10 10 11 11 11 10 10 9 9 9 10 10 10 11 11 12 12 12 12 11
1 2 3 4 6 7 8 9 10 11 11 11 11 11 11 11 11 10 10 9 9 9 9 9 10 10 10 9 9 9 9 9 9 9 10 10 10 11 12 12 12 11 11
1 2 3 5 7 8 9 9 10 10 11 11 11 11 10 10 10 9 9 8 8 8 8 8 9 9 9 9 9 8 9 9 9 10 10 10 11 11 12 12 12 11 10
1 2 4 6 7 9 9 10 10 10 10 10 10 10 10 9 9 8 8 7 7 7 7 8 8 8 8 8 8 8 8 9 10 10 10 10 11 12 12 11 11 11 10
2 3 5 7 8 9 9 10 9 9 9 10 10 10 9 8 8 7 7 6 6 6 7 7 8 8 8 8 8 8 9 9 10 10 11 11 12 12 12 11 11 10 10
2 4 6 8 9 9 9 9 8 9 10 10 9 9 9 8 7 6 6 5 6 6 7 7 8 8 8 8 8 8 9 9 10 10 11 11 12 12 11 11 10 10 10
5 6 8 9 9 9 9 8 8 9 10 10 9 9 8 7 6 5 5 5 6 6 7 7 8 8 8 8 8 8 9 9 9 10 10 11 11 11 11 11 10 10 10
7 8 9 9 9 8 8 9 9 10 10 9 9 8 7 6 5 5 5 5 6 6 7 7 7 7 7 8 8 8 8 9 9 9 10 10 10 11 11 11 10 10 10
8 8 8 8 8 8 9 10 10 10 10 9 8 7 6 5 5 5 5 5 6 6 6 6 7 7 7 7 8 8 8 8 8 9 9 9 10 10 10 11 10 10 10
8 8 8 8 9 10 11 11 11 10 9 8 7 7 6 5 5 5 5 5 5 5 5 5 6 6 7 7 8 8 8 8 8 8 8 9 9 10 10 10 10 10 10
9 9 10 10 11 12 12 11 10 9 7 7 6 6 6 6 5 5 5 5 5 4 4 5 5 5 6 6 7 7 7 7 7 7 8 8 9 9 10 10 10 10 9
11 11 12 12 12 12 11 10 9 7 7 6 6 6 6 6 6 6 5 5 4 4 4 4 4 4 5 6 6 7 7 7 7 7 7 8 8 9 9 9 10 10 9
12 12 12 12 12 11 10 9 7 6 6 5 5 5 5 6 6 6 5 5 4 4 4 4 4 4 4 5 6 6 6 7 7 7 7 7 8 8 8 9 9 9 9
12 12 11 11 10 9 8 7 6 5 5 5 5 5 5 5 5 5 5 5 4 4 4 4 3 4 4 5 5 6 6 6 6 6 7 7 7 8 8 8 8 9 9
11 11 11 10 9 8 7 6 5 5 5 5 5 5 4 4 5 5 5 4 4 4 4 4 4 4 4 5 5 5 6 6 6 6 6 6 7 7 7 7 8 8 8
12 11 11 10 9 8 8 7 7 6 6 5 5 5 4 4 4 4 4 4 4 4 4 4 4 4 4 4 5 5 5 6 6 6 5 6 6 7 7 7 7 8 8
12 12 12 11 10 10 9 9 9 8 7 7 6 6 5 5 4 4 4 4 4 4 3 3 3 3 3 3 4 5 5 5 5 5 5 5 5 6 7 7 7 7 7
13 13 12 11 11 11 11 11 11 10 10 9 8 7 6 5 4 4 3 3 3 3 3 3 3 3 3 3 3 4 4 4 4 5 5 5 5 5 6 7 7 7 7
13 13 12 12 12 12 12 12 12 11 10 10 9 8 7 5 4 3 3 3 3 3 3 3 3 3 2 2 2 3 3 4 4 4 4 4 4 5 6 6 7 7 7
13 13 13 13 13 13 13 12 12 12 11 10 9 8 7 5 4 3 3 2 2 2 2 3 3 2 2 2 2 2 3 3 3 3 3 4 4 5 5 6 6 7 7
14 14 14 14 14 14 13 13 12 12 11 10 9 8 7 6 4 3 3 2 2 2 2 3 3 2 2 2 2 2 3 3 3 3 3 3 4 4 5 6 6 7 7
14 14 14 14 14 14 13 13 12 12 11 11 10 10 9 7 6 5 4 3 3 2 2 3 3 3 2 2 3 3 3 4 4 4 4 3 3 4 4 5 6 6 7
15 15 15 15 14 14 13 13 12 12 12 11 11 11 10 9 7 6 5 4 3 3 3 3 3 3 3 3 3 3 4 4 4 4 4 4 4 4 4 5 6 6 7